EW2973 Weather Reports


time (UTC)temp
C
wind
direction
speed
KPH
gust
KPH
rain 1hr
cm
rain 24hr
cm
rain mn
cm
humidity
%
barometer
mb
20260510174516 18 19 3.2 12.9 0.00 0.00 0.00 42 1017.3
20260510173020 18 33 3.2 6.4 0.00 0.00 0.00 40 1017.4
20260510171509 18 360 1.6 4.8 0.00 0.00 0.00 41 1017.5
20260510170006 18 360 1.6 4.8 0.00 0.00 0.00 42 1017.5
20260510164506 18 23 1.6 8.0 0.00 0.00 0.00 46 1017.7
20260510163022 17 326 3.2 8.0 0.00 0.00 0.00 44 1017.6
20260510161522 17 9 3.2 8.0 0.00 0.00 0.00 42 1017.7
20260510160016 17 102 1.6 8.0 0.00 0.00 0.00 42 1017.6
20260510154513 17 9 1.6 6.4 0.00 0.00 0.00 45 1017.4
20260510153015 17 14 1.6 4.8 0.00 0.00 0.00 46 1017.1
20260510151507 16 349 1.6 4.8 0.00 0.00 0.00 47 1016.9
20260510150007 16 16 0.0 6.4 0.00 0.00 0.00 50 1016.7
20260510144539 15 352 0.0 4.8 0.00 0.00 0.00 50 1016.6
20260510143018 15 352 0.0 3.2 0.00 0.00 0.00 54 1016.3
20260510141518 14 17 0.0 4.8 0.00 0.00 0.00 51 1016.1
20260510140014 14 5 1.6 3.2 0.00 0.00 0.00 54 1016.0
20260510134512 13 344 3.2 4.8 0.00 0.00 0.00 55 1016.2
20260510133011 13 348 0.0 1.6 0.00 0.00 0.00 61 1015.9
20260510131526 12 352 0.0 0.0 0.00 0.00 0.00 59 1015.7
20260510130022 12 350 0.0 1.6 0.00 0.00 0.00 60 1015.7
20260510124522 12 9 0.0 0.0 0.00 0.00 0.00 61 1015.4
20260510123018 12 9 0.0 0.0 0.00 0.00 0.00 64 1015.1
20260510121514 12 9 0.0 0.0 0.00 0.05 0.00 63 1015.1
20260510120013 12 9 0.0 3.2 0.00 0.05 0.00 64 1015.1
20260510114512 12 360 0.0 0.0 0.00 0.05 0.00 65 1014.8
20260510113027 12 360 0.0 0.0 0.00 0.05 0.00 66 1014.6
20260510111524 12 360 0.0 0.0 0.00 0.05 0.00 70 1014.1
20260510110034 12 9 0.0 3.2 0.00 0.05 0.00 68 1013.9
20260510104523 12 5 0.0 4.8 0.00 0.05 0.00 69 1013.7
20260510103017 12 360 1.6 4.8 0.00 0.08 0.00 70 1013.2
20260510101516 12 340 0.0 4.8 0.00 0.10 0.00 72 1013.0
20260510100012 13 352 0.0 0.0 0.00 0.13 0.00 71 1012.7
20260510094524 13 352 0.0 4.8 0.00 0.15 0.00 70 1012.6
20260510093027 13 351 1.6 4.8 0.00 0.18 0.00 69 1012.3
20260510091524 13 13 3.2 6.4 0.00 0.18 0.00 69 1012.1
20260510090020 14 350 1.6 4.8 0.00 0.20 0.00 69 1011.8
20260510084519 14 360 4.8 14.5 0.00 0.20 0.00 71 1011.4
20260510083023 14 11 4.8 9.7 0.00 0.20 0.00 73 1010.9
20260510081526 14 5 1.6 3.2 0.00 0.23 0.00 74 1010.7
20260510080026 13 35 0.0 0.0 0.00 0.28 0.00 75 1010.7
20260510074524 14 91 0.0 0.0 0.00 0.33 0.00 73 1010.8
20260510073029 14 336 0.0 3.2 0.00 0.38 0.00 73 1010.9
20260510071531 15 163 0.0 1.6 0.00 0.43 0.00 74 1010.7
20260510070025 15 155 0.0 0.0 0.00 0.46 0.00 69 1010.8
20260510064523 16 263 0.0 0.0 0.00 0.51 0.00 68 1010.7
20260510063026 16 263 0.0 9.7 0.00 0.53 0.00 66 1010.7
20260510061526 16 259 4.8 16.1 0.00 0.56 0.00 66 1010.8
20260510060033 16 321 4.8 14.5 0.00 0.56 0.00 70 1011.1
20260510054526 15 241 4.8 11.3 0.00 0.56 0.00 73 1011.1
20260510053022 15 179 1.6 6.4 0.00 0.56 0.00 74 1010.9
20260510051526 15 188 0.0 3.2 0.00 0.58 0.00 74 1010.7
20260510050026 15 190 0.0 3.2 0.00 0.58 0.00 73 1010.6
20260510044531 15 213 1.6 3.2 0.00 0.61 0.00 72 1010.5
20260510043028 15 190 0.0 4.8 0.00 0.61 0.00 71 1010.4
20260510041526 15 180 1.6 6.4 0.00 0.61 0.00 70 1010.3
20260510040026 16 178 1.6 6.4 0.00 0.61 0.00 69 1010.1
20260510034522 16 147 1.6 6.4 0.00 0.61 0.61 68 1010.0
20260510033022 16 186 0.0 3.2 0.00 0.61 0.61 67 1010.0
20260510031526 16 184 0.0 3.2 0.00 0.61 0.61 66 1009.8
20260510030027 17 205 0.0 3.2 0.00 0.61 0.61 65 1009.8
20260510024526 17 209 0.0 6.4 0.00 0.61 0.61 64 1009.8
20260510023026 17 217 0.0 4.8 0.00 0.61 0.61 63 1009.7
20260510021524 17 201 0.0 6.4 0.00 0.61 0.61 62 1009.5
20260510020022 18 221 1.6 8.0 0.00 0.61 0.61 61 1009.3
20260510014523 18 173 1.6 8.0 0.00 0.61 0.61 60 1009.1
20260510013028 18 203 3.2 6.4 0.00 0.61 0.61 59 1008.9
20260510011534 18 181 3.2 6.4 0.00 0.64 0.61 58 1008.6
20260510010035 19 179 3.2 12.9 0.00 0.64 0.61 56 1008.7
20260510004526 20 244 3.2 14.5 0.00 0.66 0.61 55 1008.6
20260510003025 20 222 3.2 14.5 0.00 0.66 0.61 53 1008.3
20260510001526 20 275 6.4 25.7 0.00 0.66 0.61 52 1008.1
20260510000022 20 210 4.8 29.0 0.00 0.66 0.61 52 1007.9
20260509234528 20 215 6.4 20.9 0.00 0.66 0.61 51 1007.8
20260509233028 21 229 4.8 19.3 0.00 0.66 0.61 50 1007.9
20260509231532 21 293 8.0 29.0 0.00 0.66 0.61 48 1007.6
20260509230027 21 245 16.1 29.0 0.00 0.66 0.61 48 1007.7
20260509224526 21 238 12.9 22.5 0.00 0.66 0.61 51 1007.6
20260509223023 21 254 6.4 20.9 0.00 0.66 0.61 52 1007.4
20260509221551 21 202 12.9 24.1 0.00 0.66 0.61 53 1007.5
20260509220029 21 214 11.3 24.1 0.00 0.66 0.61 53 1007.6
20260509214527 21 263 8.0 20.9 0.00 0.66 0.61 53 1007.7
20260509213028 21 246 9.7 22.5 0.00 0.66 0.61 53 1007.9
20260509211526 21 207 8.0 24.1 0.00 0.66 0.61 52 1008.0
20260509210025 21 174 12.9 27.4 0.00 0.66 0.61 51 1007.9
20260509204523 21 254 8.0 22.5 0.00 0.66 0.61 52 1008.0
20260509203022 21 227 8.0 32.2 0.00 0.66 0.61 53 1008.2
20260509201520 21 252 11.3 24.1 0.00 0.66 0.61 54 1008.2
20260509200018 21 130 9.7 30.6 0.00 0.66 0.61 55 1008.5
20260509194516 21 198 8.0 19.3 0.00 0.66 0.61 56 1008.5
20260509193012 21 232 6.4 19.3 0.00 0.66 0.61 58 1008.5
20260509191527 20 277 6.4 20.9 0.00 0.66 0.61 60 1008.7
20260509190040 20 206 4.8 20.9 0.00 0.66 0.61 60 1008.8
20260509184531 20 237 8.0 19.3 0.00 0.66 0.61 60 1008.8
20260509183027 19 254 6.4 19.3 0.00 0.66 0.61 63 1009.0
20260509181516 18 252 6.4 16.1 0.00 0.66 0.61 62 1009.0
20260509180013 19 208 6.4 20.9 0.00 0.66 0.61 67 1009.2